FW9306 Weather Reports


time (UTC)temp
C
wind
direction
speed
KPH
gust
KPH
rain 1hr
cm
rain 24hr
cm
rain mn
cm
humidity
%
barometer
mb
20260506051348 17 287 6.4 8.0 0.00 0.71 0.71 51 1013.3
20260506050845 17 276 8.0 9.7 0.00 0.71 0.71 50 1013.3
20260506050343 17 280 4.8 4.8 0.00 0.71 0.71 50 1013.1
20260506044833 17 270 4.8 4.8 0.00 0.71 0.71 50 1012.8
20260506044331 17 267 11.3 12.9 0.00 0.71 0.71 50 1012.8
20260506043828 17 330 4.8 4.8 0.00 0.71 0.71 50 1013.0
20260506043325 18 252 4.8 4.8 0.00 0.71 0.71 50 1012.8
20260506042823 18 301 9.7 12.9 0.00 0.71 0.71 49 1012.7
20260506042322 18 279 9.7 11.3 0.00 0.71 0.71 49 1012.5
20260506041821 18 246 9.7 11.3 0.00 0.71 0.71 49 1012.4
20260506041317 18 269 8.0 11.3 0.00 0.71 0.71 48 1012.4
20260506040814 18 239 9.7 11.3 0.00 0.71 0.71 46 1012.2
20260506040312 18 285 8.0 9.7 0.00 0.71 0.71 45 1012.1
20260506035808 18 263 14.5 16.1 0.00 0.71 0.71 43 1012.2
20260506035306 18 249 8.0 9.7 0.00 0.71 0.71 40 1012.3
20260506034803 18 258 9.7 11.3 0.00 0.71 0.71 39 1012.1
20260506034259 19 259 9.7 11.3 0.00 0.71 0.71 38 1012.0
20260506033756 18 280 9.7 11.3 0.00 0.71 0.71 38 1011.8
20260506033253 19 272 8.0 9.7 0.00 0.71 0.71 37 1011.8
20260506032750 19 262 9.7 11.3 0.00 0.71 0.71 37 1011.8
20260506032247 19 289 9.7 12.9 0.00 0.71 0.71 36 1011.8
20260506031744 19 285 8.0 9.7 0.00 0.71 0.71 36 1011.7
20260506031241 19 270 9.7 11.3 0.00 0.71 0.71 36 1011.5
20260506030739 20 287 8.0 9.7 0.00 0.71 0.71 36 1011.6
20260506030237 20 314 8.0 9.7 0.00 0.71 0.71 35 1011.5
20260506025733 20 270 12.9 16.1 0.00 0.71 0.71 36 1011.5
20260506025230 20 287 9.7 11.3 0.00 0.71 0.71 36 1011.1
20260506024727 20 284 8.0 11.3 0.00 0.71 0.71 35 1011.1
20260506024223 20 275 8.0 11.3 0.00 0.71 0.71 37 1011.1
20260506023719 20 280 11.3 12.9 0.00 0.71 0.71 36 1011.0
20260506023217 20 281 12.9 14.5 0.00 0.71 0.71 36 1011.0
20260506022713 20 287 14.5 17.7 0.00 0.71 0.71 36 1010.8
20260506022211 20 328 14.5 20.9 0.00 0.71 0.71 36 1010.8
20260506021709 20 329 8.0 11.3 0.00 0.71 0.71 37 1010.6
20260506021206 20 296 12.9 14.5 0.00 0.71 0.71 36 1010.5
20260506020703 20 278 14.5 20.9 0.00 0.71 0.71 36 1010.4
20260506020201 20 290 16.1 20.9 0.00 0.71 0.71 36 1010.2
20260506015658 20 305 11.3 12.9 0.00 0.71 0.71 37 1010.3
20260506015155 20 291 12.9 16.1 0.00 0.71 0.71 36 1010.2
20260506014652 20 292 14.5 17.7 0.00 0.71 0.71 36 1010.2
20260506014148 21 295 19.3 22.5 0.00 0.71 0.71 35 1010.4
20260506013646 21 289 17.7 22.5 0.00 0.71 0.71 35 1010.1
20260506013143 21 294 14.5 16.1 0.00 0.71 0.71 33 1010.1
20260506012639 21 260 20.9 27.4 0.00 0.71 0.71 31 1010.1
20260506012136 21 171 17.7 22.5 0.00 0.71 0.71 31 1010.1
20260506011633 21 248 14.5 16.1 0.00 0.71 0.71 31 1009.9
20260506011129 21 254 17.7 22.5 0.00 0.71 0.71 31 1009.8
20260506010628 22 219 12.9 14.5 0.00 0.71 0.71 32 1009.8
20260506010125 22 315 17.7 22.5 0.00 0.71 0.71 31 1009.8
20260506005622 22 276 14.5 20.9 0.00 0.71 0.71 32 1009.8
20260506005118 22 251 14.5 20.9 0.00 0.71 0.71 32 1009.5
20260506004615 22 259 17.7 17.7 0.00 0.71 0.71 31 1009.5
20260506004112 22 262 19.3 22.5 0.00 0.71 0.71 31 1009.5
20260506003609 22 273 17.7 24.1 0.00 0.71 0.71 31 1009.4
20260506003105 22 279 17.7 25.7 0.00 0.71 0.71 31 1009.7
20260506002601 22 280 17.7 22.5 0.00 0.71 0.71 32 1009.5
20260506002057 22 247 16.1 20.9 0.00 0.71 0.71 31 1009.4
20260506001553 22 18 20.9 22.5 0.00 0.71 0.71 31 1009.3
20260506001050 22 295 12.9 14.5 0.00 0.71 0.71 32 1009.4
20260506000548 22 273 17.7 20.9 0.00 0.71 0.71 32 1009.4
20260506000045 22 186 11.3 12.9 0.00 0.71 0.71 33 1009.4
20260505235543 22 252 24.1 29.0 0.00 0.71 0.71 30 1009.3
20260505235040 22 245 14.5 17.7 0.00 0.71 0.71 30 1009.3
20260505234537 23 252 24.1 27.4 0.00 0.71 0.71 29 1009.2
20260505234033 23 277 12.9 14.5 0.00 0.71 0.71 32 1009.0
20260505233531 22 232 17.7 20.9 0.00 0.71 0.71 30 1009.1
20260505233028 22 247 14.5 16.1 0.00 0.71 0.71 31 1009.2
20260505232526 23 292 19.3 24.1 0.00 0.71 0.71 29 1009.1
20260505232023 22 234 9.7 11.3 0.00 0.71 0.71 32 1009.2
20260505231520 22 230 17.7 20.9 0.00 0.71 0.71 29 1009.2
20260505231019 22 282 19.3 22.5 0.00 0.71 0.71 29 1009.2
20260505230515 23 235 16.1 17.7 0.00 0.71 0.71 29 1009.2
20260505230012 23 202 16.1 22.5 0.00 0.71 0.71 31 1009.4
20260505225509 22 288 16.1 20.9 0.00 0.71 0.71 31 1009.4
20260505225005 22 236 24.1 29.0 0.00 0.71 0.71 29 1009.2
20260505224502 23 239 20.9 27.4 0.00 0.71 0.71 31 1009.4
20260505223959 22 256 16.1 20.9 0.00 0.71 0.71 31 1009.4
20260505223456 22 281 25.7 32.2 0.00 0.71 0.71 29 1009.3
20260505222952 22 272 16.1 17.7 0.00 0.71 0.71 32 1009.3
20260505222449 22 317 17.7 24.1 0.00 0.71 0.71 33 1009.6
20260505221944 22 229 17.7 20.9 0.00 0.71 0.71 31 1009.7
20260505221442 22 257 19.3 20.9 0.00 0.71 0.71 31 1009.7
20260505220939 23 249 17.7 20.9 0.00 0.71 0.71 33 1009.7
20260505220436 23 255 27.4 32.2 0.00 0.71 0.71 31 1009.7
20260505215934 23 283 20.9 25.7 0.00 0.71 0.71 32 1009.7
20260505215432 22 289 12.9 16.1 0.00 0.71 0.71 33 1009.8
20260505214929 22 260 16.1 22.5 0.00 0.71 0.71 33 1009.9
20260505214427 23 231 17.7 20.9 0.00 0.71 0.71 35 1009.8
20260505213924 22 275 20.9 27.4 0.00 0.71 0.71 33 1009.8
20260505213421 22 288 24.1 27.4 0.00 0.71 0.71 36 1009.7
20260505212917 22 275 27.4 33.8 0.00 0.71 0.71 36 1009.7
20260505212414 22 243 14.5 16.1 0.00 0.71 0.71 40 1009.7
20260505211911 22 275 17.7 24.1 0.00 0.71 0.71 38 1010.1
20260505211409 23 216 20.9 24.1 0.00 0.71 0.71 38 1009.7
20260505210904 22 256 17.7 20.9 0.00 0.71 0.71 39 1010.1
20260505210402 22 287 17.7 20.9 0.00 0.71 0.71 40 1010.4
20260505205859 22 255 22.5 29.0 0.00 0.71 0.71 40 1010.1
20260505205357 22 282 24.1 29.0 0.00 0.71 0.71 40 1010.2
20260505204853 22 280 20.9 25.7 0.00 0.71 0.71 40 1010.3
20260505204351 22 234 16.1 17.7 0.00 0.71 0.71 40 1010.2
20260505203848 23 238 19.3 24.1 0.00 0.71 0.71 39 1010.4
20260505203344 22 223 16.1 20.9 0.00 0.71 0.71 41 1010.2
20260505202841 22 239 19.3 22.5 0.00 0.71 0.71 39 1010.2
20260505202337 21 230 12.9 14.5 0.00 0.71 0.71 44 1010.6
20260505201834 22 232 16.1 20.9 0.00 0.71 0.71 43 1010.7
20260505201332 22 241 17.7 17.7 0.00 0.71 0.71 41 1010.5
20260505200830 22 266 12.9 16.1 0.00 0.71 0.71 43 1010.6
20260505200326 22 265 22.5 25.7 0.00 0.71 0.71 43 1010.6
20260505195822 21 308 6.4 8.0 0.00 0.71 0.71 50 1010.6
20260505195319 21 252 8.0 11.3 0.00 0.71 0.71 54 1010.8
20260505194816 21 240 8.0 9.7 0.00 0.71 0.71 53 1010.7
20260505194314 21 235 8.0 11.3 0.00 0.71 0.71 55 1010.9
20260505193808 21 277 4.8 4.8 0.00 0.71 0.71 53 1011.0
20260505193307 21 252 4.8 4.8 0.00 0.71 0.71 54 1010.8
20260505192805 21 280 11.3 12.9 0.00 0.71 0.71 52 1010.6
20260505192305 20 327 3.2 3.2 0.00 0.71 0.71 54 1010.9
20260505191800 20 206 3.2 3.2 0.00 0.71 0.71 54 1010.9
20260505191258 20 341 8.0 9.7 0.00 0.71 0.71 54 1011.0
20260505190754 20 320 6.4 8.0 0.00 0.71 0.71 54 1011.1
20260505190249 20 128 11.3 12.9 0.00 0.71 0.71 57 1011.5
20260505185746 20 121 3.2 3.2 0.00 0.71 0.71 57 1011.4
20260505185243 20 278 8.0 11.3 0.00 0.71 0.71 57 1011.6
20260505184738 20 195 8.0 9.7 0.00 0.71 0.71 59 1011.5
20260505184236 20 271 8.0 9.7 0.00 0.71 0.71 59 1011.8
20260505183733 20 270 8.0 9.7 0.00 0.71 0.71 60 1011.8
20260505183230 21 252 9.7 12.9 0.00 0.71 0.71 59 1011.6
20260505182726 20 279 8.0 9.7 0.00 0.71 0.71 60 1011.7
20260505182223 20 200 1.6 1.6 0.00 0.71 0.71 61 1012.0
20260505181720 19 251 3.2 3.2 0.00 0.71 0.71 62 1011.9
20260505181217 20 279 11.3 12.9 0.00 0.71 0.71 62 1012.0
20260505180714 19 4 8.0 9.7 0.00 0.71 0.71 63 1011.9
20260505180210 18 332 1.6 3.2 0.00 0.71 0.71 65 1012.1
20260505175706 18 336 4.8 8.0 0.00 0.71 0.71 63 1012.2
20260505175203 19 9 1.6 4.8 0.00 0.71 0.71 62 1012.1
20260505174700 19 227 4.8 4.8 0.00 0.71 0.71 61 1012.0
20260505174156 20 231 11.3 11.3 0.00 0.71 0.71 63 1012.2
20260505173653 19 168 1.6 1.6 0.00 0.71 0.71 65 1012.3
20260505173150 18 219 4.8 4.8 0.00 0.71 0.71 63 1012.2
20260505172647 19 195 4.8 4.8 0.00 0.71 0.71 63 1012.3
20260505172144 18 207 1.6 1.6 0.00 0.71 0.71 66 1012.5
20260505171643 18 189 1.6 1.6 0.00 0.71 0.71 67 1012.2
20260505171141 18 187 1.6 1.6 0.00 0.71 0.71 68 1012.2
20260505170638 18 188 0.0 1.6 0.00 0.71 0.71 66 1012.1
20260505170135 18 45 0.0 1.6 0.00 0.71 0.71 66 1012.3
20260505165634 18 81 1.6 1.6 0.00 0.71 0.71 66 1012.1
20260505165131 18 25 1.6 1.6 0.00 0.71 0.71 67 1012.2
20260505164626 17 309 0.0 1.6 0.00 0.71 0.71 71 1012.0
20260505164125 17 204 4.8 4.8 0.00 0.71 0.71 74 1012.2
20260505163623 17 294 0.0 1.6 0.00 0.71 0.71 74 1012.3
20260505163120 17 263 3.2 3.2 0.00 0.71 0.71 74 1012.1
20260505162617 17 353 3.2 3.2 0.00 0.71 0.71 75 1012.2
20260505162115 16 193 1.6 1.6 0.00 0.71 0.71 75 1012.3
20260505161612 17 274 4.8 4.8 0.00 0.71 0.71 75 1012.4
20260505161109 17 230 3.2 3.2 0.00 0.71 0.71 74 1012.7
20260505160607 16 261 3.2 3.2 0.00 0.71 0.71 74 1012.2
20260505160104 16 221 3.2 3.2 0.00 0.71 0.71 75 1012.1
20260505153043 16 190 1.6 1.6 0.00 0.71 0.71 83 1012.3
20260505152540 15 221 1.6 1.6 0.00 0.71 0.71 84 1012.2
20260505152036 15 204 0.0 1.6 0.00 0.71 0.71 86 1012.1
20260505151531 15 198 0.0 0.0 0.00 0.71 0.71 88 1012.1
20260505151029 15 205 0.0 0.0 0.00 0.71 0.71 88 1012.0
20260505150525 15 209 0.0 1.6 0.00 0.71 0.71 90 1012.2
20260505140450 14 106 6.4 9.7 0.00 0.71 0.71 95 1011.8
20260505124903 13 212 0.0 0.0 0.00 0.71 0.71 96 1011.1
20260505124401 13 205 0.0 0.0 0.00 0.71 0.71 96 1011.1
20260505123856 13 86 0.0 1.6 0.00 0.71 0.71 96 1011.1
20260505123353 13 285 3.2 3.2 0.00 0.71 0.71 96 1011.1
20260505122849 14 196 0.0 0.0 0.00 0.71 0.71 96 1010.6
20260505122347 13 163 0.0 0.0 0.00 0.71 0.71 95 1010.7
20260505121843 13 200 0.0 0.0 0.00 0.71 0.71 95 1010.9
20260505121340 13 214 0.0 0.0 0.00 0.71 0.71 95 1010.9
20260505120836 13 279 0.0 0.0 0.00 0.71 0.71 95 1010.6
20260505120332 13 199 0.0 0.0 0.00 0.71 0.71 95 1010.7
20260505115831 13 282 3.2 3.2 0.00 0.71 0.71 95 1010.8
20260505115329 13 274 0.0 0.0 0.00 0.71 0.71 95 1010.4
20260505114827 13 169 0.0 0.0 0.13 0.71 0.71 95 1010.6
20260505114323 13 355 1.6 1.6 0.13 0.71 0.71 95 1010.6
20260505113819 13 150 0.0 0.0 0.18 0.69 0.69 95 1010.6
20260505113316 13 169 0.0 1.6 0.18 0.69 0.69 95 1010.4
20260505112811 13 167 0.0 0.0 0.18 0.69 0.69 95 1010.9
20260505112309 13 189 0.0 0.0 0.00 0.66 0.66 95 1011.0
20260505111805 13 196 0.0 0.0 0.13 0.66 0.66 95 1011.1
20260505111300 13 288 0.0 1.6 0.30 0.66 0.66 95 1010.7
20260505110756 13 2 3.2 3.2 0.18 0.64 0.64 95 1010.8
20260505110254 13 53 0.0 0.0 0.13 0.61 0.61 95 1011.1
20260505101728 13 211 0.0 0.0 0.18 0.53 0.53 94 1011.7
20260505101224 13 191 0.0 0.0 0.18 0.53 0.53 94 1012.0
20260505100721 13 191 3.2 4.8 0.00 0.51 0.51 94 1011.8
20260505100218 13 219 1.6 1.6 0.00 0.51 0.51 94 1012.0
20260505095713 13 184 6.4 9.7 0.00 0.51 0.51 94 1011.9
20260505095211 13 209 0.0 1.6 0.00 0.51 0.51 94 1012.0
20260505094706 13 218 0.0 0.0 0.00 0.51 0.51 94 1012.2
20260505094203 13 120 4.8 9.7 0.13 0.51 0.51 94 1012.3
20260505093659 13 123 3.2 4.8 0.13 0.51 0.51 94 1012.1
20260505093157 13 158 4.8 4.8 0.30 0.51 0.51 94 1012.4
20260505092654 13 133 1.6 1.6 0.18 0.48 0.48 94 1012.5
20260505092152 13 83 3.2 3.2 0.13 0.46 0.46 94 1012.5
20260505091649 13 124 3.2 4.8 0.13 0.46 0.46 94 1012.9
20260505091147 13 126 1.6 3.2 0.18 0.43 0.43 94 1012.7
20260505090644 13 154 4.8 4.8 0.36 0.43 0.43 94 1012.8
20260505090143 13 183 1.6 3.2 0.18 0.41 0.41 94 1013.2
20260505085639 14 196 3.2 3.2 0.13 0.38 0.38 94 1013.2
20260505085138 14 161 3.2 3.2 0.13 0.38 0.38 94 1013.5
20260505084635 14 191 4.8 8.0 0.18 0.36 0.36 94 1013.4
20260505084133 14 133 4.8 4.8 0.18 0.36 0.36 94 1013.4
20260505083631 14 128 3.2 4.8 0.13 0.33 0.33 94 1013.8
20260505083127 14 163 6.4 8.0 0.13 0.33 0.33 94 1014.0
20260505082623 14 153 1.6 3.2 0.00 0.30 0.30 94 1014.2
20260505082120 14 174 3.2 3.2 0.18 0.30 0.30 94 1014.1
20260505081616 14 121 3.2 4.8 0.18 0.30 0.30 94 1014.4
20260505081114 14 169 4.8 4.8 0.30 0.28 0.28 94 1014.4
20260505080610 14 69 3.2 3.2 0.30 0.28 0.28 93 1014.5
20260505080107 14 142 3.2 3.2 0.30 0.25 0.25 93 1014.8
20260505075602 14 161 0.0 0.0 0.30 0.23 0.23 93 1014.9
20260505075059 14 177 0.0 0.0 0.48 0.20 0.20 93 1014.6
20260505074556 14 120 0.0 1.6 0.43 0.18 0.18 93 1014.7
20260505074053 14 167 1.6 1.6 0.30 0.13 0.13 93 1015.0
20260505073551 14 148 0.0 0.0 0.36 0.10 0.10 92 1015.0
20260505073049 14 154 1.6 1.6 0.18 0.08 0.08 92 1014.9
20260505072544 14 185 0.0 0.0 0.00 0.05 0.05 92 1014.8
20260505072041 13 106 1.6 3.2 0.13 0.05 0.05 92 1014.6
20260505071536 14 62 4.8 4.8 0.30 0.05 0.05 92 1014.5
20260505071035 14 128 1.6 3.2 0.18 0.03 0.03 92 1014.7
20260505070532 14 100 1.6 3.2 0.00 0.00 0.00 92 1014.7
20260505070027 14 114 1.6 1.6 0.13 0.58 0.58 91 1014.6
20260505065523 14 187 1.6 1.6 0.13 0.58 0.58 91 1014.5
20260505065020 14 79 0.0 0.0 0.18 0.56 0.56 91 1014.5
20260505064517 14 194 1.6 1.6 0.18 0.56 0.56 90 1014.4
20260505064016 14 187 0.0 0.0 0.13 0.53 0.53 90 1014.3
20260505063513 15 189 1.6 1.6 0.13 0.53 0.53 89 1014.1
20260505063008 14 141 0.0 1.6 0.18 0.51 0.51 88 1014.4
20260505062505 14 79 1.6 3.2 0.18 0.51 0.51 87 1014.2
20260505062002 15 45 4.8 4.8 0.13 0.48 0.48 87 1014.5
20260505061500 15 10 4.8 4.8 0.13 0.48 0.48 86 1014.7
20260505060957 15 43 3.2 3.2 0.18 0.46 0.46 86 1014.7
20260505060454 15 41 3.2 3.2 0.18 0.46 0.46 85 1014.4